Regional Weather Roundup
Issued by NWS

Home | Current Version | Previous Version | Text Only | Print | Product List | Glossary Off
Versions: 1 2 3 4 5 6 7 8 9 10 11 12 13 14 15 16 17 18 19 20 21 22 23 24 25 26 27 28 29 30 31 32 33 34 35 36 37 38 39 40 41 42 43 44 45 46 47 48 49 50

000
ASUS45 KBOU 231407
RWRCO

WEATHER ROUNDUP FOR COLORADO
NATIONAL WEATHER SERVICE DENVER/BOULDER CO
800 AM MDT WED JUL 23 2014

NOTE: "FAIR" INDICATES FEW OR NO CLOUDS BELOW 12000 FEET WITH NO
SIGNIFICANT WEATHER AND/OR OBSTRUCTIONS TO VISIBILITY.

COZ001>005-013-030-031-231500-
...NORTHWEST COLORADO...

CITY           SKY/WX    TMP DP  RH WIND       PRES   REMARKS
CRAIG          SUNNY     56  43  61 CALM      30.38R
HAYDEN         SUNNY     66  39  37 E8        30.41R
MEEKER         SUNNY     64  39  39 CALM      30.39S
MOUNT WERNER   NOT AVBL
STEAMBOAT SPGS SUNNY     59  41  50 CALM      30.44S
WALDEN         SUNNY     55  39  54 CALM      30.55R
$$

COZ006>008-011-231500-
...WEST CENTRAL VALLEYS...

CITY           SKY/WX    TMP DP  RH WIND       PRES   REMARKS
GRAND JUNCTION SUNNY     79  34  19 SE9       30.26R
MONTROSE       MOSUNNY   72  46  39 SE5       30.37R
EAGLE          SUNNY     61  41  48 CALM      30.49R
RIFLE          SUNNY     67  40  37 CALM      30.35R
DELTA          MOSUNNY   77  41  27 CALM      30.33R
NUCLA          MOSUNNY   70  37  30 E3        30.40S
$$

COZ017>023-064>068-231500-
...SOUTHWEST COLORADO...

CITY           SKY/WX    TMP DP  RH WIND       PRES   REMARKS
DURANGO        SUNNY     66  52  60 CALM      30.45R
CORTEZ         SUNNY     76  44  32 CALM      30.38R
PAGOSA SPRINGS SUNNY     66  42  42 CALM      30.55R
TELLURIDE      MOSUNNY   68  39  34 CALM      30.62S
WOLF CREEK PAS NOT AVBL
$$

COZ009-010-012-014-032>034-037-058>063-231500-
...CENTRAL COLORADO...

CITY           SKY/WX    TMP DP  RH WIND       PRES   REMARKS
ASPEN          SUNNY     68  43  40 SE3       30.53R
BUENA VISTA    SUNNY     60  44  55 CALM      30.61R
COPPER MTN     SUNNY     59  36  41 S15       30.88R
BERTHOUD PASS  FAIR      50  36  57 MISG      30.94R
COTTONWOOD PAS SUNNY     64  41  42 CALM      30.73R
GUNNISON       MOSUNNY   61  43  51 N9        30.59S
KREMMLING      SUNNY     55  37  50 CALM      30.54S
LEADVILLE      SUNNY     55  40  56 CALM      30.72S
MONARCH PASS   SUNNY     54  37  54 S3        31.00R
SALIDA         SUNNY    N/A N/A N/A W3        30.65R
SUNLIGHT       SUNNY     61  36  39 CALM      30.79R
WILKERSON PASS MOSUNNY   54  39  58 S9G21     30.86R
$$

COZ069>075-231500-
...SAN LUIS VALLEY/SANGRE DE CRISTO MOUNTAINS...

CITY           SKY/WX    TMP DP  RH WIND       PRES   REMARKS
ALAMOSA        SUNNY     61  49  64 SE6       30.55R
LA VETA PASS   SUNNY     63  41  45 NE6       30.75R
SAGUACHE       MOSUNNY   61  43  51 NW9       30.57S
$$

COZ035-036-038>040-231500-
...NORTHERN COLORADO FRONT RANGE...

CITY           SKY/WX    TMP DP  RH WIND       PRES   REMARKS
DENVER INTL AP MOSUNNY   70  62  76 NW7       30.36R
DMNS CITY PARK   N/A     70  62  75 W2        30.35F
AURORA         MOSUNNY   69  61  76 NW3       30.39R
FRONT RANGE AP NOT AVBL
ERIE MUNI ARPT MOSUNNY   69  64  84 N7        30.35S
BOULDER MUN AP PTSUNNY   68  61  77 N5        30.36R
CENTENNIAL     MOSUNNY   72  49  44 W3        30.39S
BROOMFIELD     MOSUNNY   68  63  83 N7        30.38
FORT COLLINS   PTSUNNY   66  63  88 NE8       30.37R
LONGMONT       SUNNY     73  65  74 N5        30.36S
$$

COZ041-046-047-076>085-087-088-231500-
...PIKES PEAK/PALMER DIVIDE AND SOUTHERN FOOTHILLS...

CITY           SKY/WX    TMP DP  RH WIND       PRES   REMARKS
COLO. SPRINGS  MOSUNNY   76  51  41 CALM      30.43R
A. F. ACADEMY  NOT AVBL
ELLICOTT       SUNNY     78  54  43 E6        30.41R
FALCON         SUNNY     75  49  40 CALM      30.49R
FORT CARSON    NOT AVBL
LIMON          SUNNY     69  61  75 S7        30.38R
MONUMENT HILL  MOSUNNY   72  46  40 SW5       30.48S
TRINIDAD       SUNNY     73  50  44 W12       30.40R
$$

COZ042>045-048>051-090-091-231500-
...NORTHEAST COLORADO...

CITY           SKY/WX    TMP DP  RH WIND       PRES   REMARKS
GREELEY ARPT   CLOUDY    66  57  72 E6        30.34S
AKRON          CLOUDY    67  65  93 SE14      30.34R FOG
BURLINGTON     CLOUDY    68  66  93 SE14      30.31S FOG
WRAY             N/A     71  67  87 SE9       30.32R
STERLING       CLOUDY    72  70  94 E9        30.34R FOG
HOLYOKE        DRIZZLE   68  64  88 E17       30.38S
FORT MORGAN    CLOUDY    68  64  85 E10       30.34R
$$

COZ086-089-092>099-231500-
...SOUTHEAST COLORADO...

CITY           SKY/WX    TMP DP  RH WIND       PRES   REMARKS
PUEBLO         SUNNY     71  55  56 CALM      30.32R
LA JUNTA       SUNNY     73  60  63 E3        30.30R
LAMAR          SUNNY     75  63  66 E7        30.25R
SPRINGFIELD      N/A     79  64  60 SW6       30.31R
$$


USA.gov is the U.S. government's official web portal to all federal, state and local government web resources and services.